Weather History for KEST - July, 2012

Change the Weather History Date:

Tuesday, July 17, 2012

  Actual Average Record
Temperature  
Mean Temperature 80 °F 72 °F  
Max Temperature 94 °F 83 °F 98 °F (1957)
Min Temperature 66 °F 61 °F 48 °F (2014)
Degree Days  
Heating Degree Days 0 0  
Month to date heating degree days 0 0  
Since 1 June heating degree days 18 41  
Since 1 July heating degree days 0 0  
Cooling Degree Days 15 7  
Month to date cooling degree days 205 119  
Year to date cooling degree days 501 292  
Since 1 June cooling degree days 412 256  
Growing Degree Days 30 (Base 50)    
Moisture  
Dew Point 69 °F    
Average Humidity 69    
Maximum Humidity 93    
Minimum Humidity 44    
Precipitation  
Precipitation 0.00 in 0.14 in 0.85 in (1950)
Month to date precipitation T 2.31  
Year to date precipitation 15.47  
Sea Level Pressure  
Sea Level Pressure 29.79 in    
Wind  
Wind Speed 6 mph (SSW)    
Max Wind Speed 15 mph    
Max Gust Speed 21 mph    
Visibility 9 miles    
Events      
T = Trace of Precipitation, MM = Missing Value Source: NWS Daily Summary

Daily Weather History Graph

Daily Weather History Graph

Search for Another Location

Airport or City:

Trip Planner

Search our weather history database for the weather conditions in past years. The results will help you decide how hot, cold, wet, or windy it might be!

Date:

Astronomy

Jul. 17, 2012 Rise Set
Actual Time 5:54 AM CDT 8:55 PM CDT
Civil Twilight 5:20 AM CDT 9:29 PM CDT
Nautical Twilight 4:36 AM CDT 10:13 PM CDT
Astronomical Twilight 3:44 AM CDT 11:04 PM CDT
Moon 4:32 AM CDT (7/17) 7:45 PM CDT (7/17)
Length of Visible Light 16h 09m
Length of Day
15h 01m
Waning Crescent, 2% of the Moon is Illuminated
Jul 17
Waning Crescent
Jul 18
New
Jul 26
First Quarter
Aug 1
Full
Aug 9
Last Quarter

Hourly Weather History & Observations

Time (CDT) Temp. Heat Index Dew Point Humidity Pressure Visibility Wind Dir Wind Speed Gust Speed Precip Events Conditions
12:52 AM 75.0 °F - 68.0 °F 79% 29.80 in 10.0 mi SSW 6.9 mph - N/A   Clear
1:52 AM 75.9 °F - 68.0 °F 76% 29.79 in 10.0 mi SSW 9.2 mph - N/A   Clear
2:52 AM 75.9 °F - 66.9 °F 74% 29.77 in 10.0 mi SSW 11.5 mph - N/A   Clear
3:52 AM 73.9 °F - 66.9 °F 79% 29.77 in 10.0 mi SSW 9.2 mph - N/A   Clear
4:52 AM 72.0 °F - 66.9 °F 84% 29.77 in 10.0 mi SSW 6.9 mph - N/A   Clear
5:52 AM 68.0 °F - 64.9 °F 90% 29.78 in 7.0 mi South 4.6 mph - N/A   Clear
6:52 AM 68.0 °F - 66.0 °F 93% 29.79 in 6.0 mi South 4.6 mph - N/A   Clear
7:52 AM 73.9 °F - 68.0 °F 82% 29.80 in 8.0 mi SSW 3.5 mph - N/A   Clear
8:52 AM 81.0 °F 84.1 °F 69.1 °F 67% 29.80 in 10.0 mi SSW 4.6 mph - N/A   Clear
9:52 AM 84.9 °F 88.2 °F 68.0 °F 57% 29.81 in 10.0 mi SW 5.8 mph - N/A   Clear
10:52 AM 87.1 °F 91.3 °F 69.1 °F 55% 29.80 in 10.0 mi SSW 5.8 mph - N/A   Clear
11:52 AM 89.1 °F 92.9 °F 68.0 °F 50% 29.81 in 10.0 mi Variable 3.5 mph - N/A   Clear
12:52 PM 90.0 °F 94.5 °F 69.1 °F 50% 29.81 in 10.0 mi Variable 5.8 mph - N/A   Clear
1:52 PM 91.9 °F 96.9 °F 69.1 °F 47% 29.80 in 10.0 mi South 5.8 mph - N/A   Clear
2:52 PM 93.9 °F 98.6 °F 68.0 °F 43% 29.79 in 10.0 mi South 8.1 mph - N/A   Clear
3:52 PM 93.9 °F 100.8 °F 71.1 °F 47% 29.78 in 10.0 mi South 8.1 mph - N/A   Clear
4:52 PM 93.9 °F 98.6 °F 68.0 °F 43% 29.77 in 10.0 mi SSW 9.2 mph - N/A   Mostly Cloudy
5:52 PM 93.0 °F 97.9 °F 69.1 °F 45% 29.76 in 10.0 mi South 8.1 mph - N/A   Clear
7:52 PM 86.0 °F 93.0 °F 73.0 °F 65% 29.77 in 10.0 mi South 6.9 mph - N/A   Clear
8:52 PM 82.9 °F 88.0 °F 72.0 °F 69% 29.78 in 8.0 mi South 4.6 mph - N/A   Clear
9:52 PM 79.0 °F - 72.0 °F 79% 29.80 in 9.0 mi South 5.8 mph - N/A   Clear
10:52 PM 77.0 °F - 71.1 °F 82% 29.82 in 9.0 mi SSW 3.5 mph - N/A   Clear
11:52 PM 75.0 °F - 71.1 °F 87% 29.82 in 8.0 mi South 3.5 mph - N/A   Clear